Regional Weather Roundup
Issued by NWS

Home | Current Version | Previous Version | Text Only | Print | Product List | Glossary On
Versions: 1 2 3 4 5 6 7 8 9 10 11 12 13 14 15 16 17 18 19 20 21 22 23 24 25 26 27 28 29 30 31 32 33 34 35 36 37 38 39 40 41 42 43 44 45 46 47 48 49 50
000
ASUS44 KFWD 241110
RWRTX
NORTH TEXAS HOURLY WEATHER ROUNDUP
NATIONAL WEATHER SERVICE FORT WORTH TX
600 AM CDT THU AUG 24 2017

NOTE: "FAIR" INDICATES FEW OR NO CLOUDS BELOW 12,000 FEET WITH NO
SIGNIFICANT WEATHER AND/OR OBSTRUCTIONS TO VISIBILITY.

TXZ118-119-241200-
DALLAS/FORT WORTH METROPLEX

CITY           SKY/WX    TMP DP  RH WIND       PRES   REMARKS
DFW AIRPORT    CLOUDY    76  74  93 NE6       29.92S
DALLAS LOVE    CLOUDY    79  72  79 NE5       29.93S
FTW MEACHAM    CLOUDY    76  75  97 CALM      29.93F
DAL-EXECUTIVE  CLOUDY    77  72  84 SE3       29.93S
FTW-ALLIANCE   CLOUDY    74  74 100 N3        29.93F
FTW-NAS-JRB    CLOUDY    76  73  91 N5        29.94F
FTW-SPINKS     MOCLDY    75  73  94 CALM      29.95F
ARLINGTON      MOCLDY    78  74  87 CALM      29.94R
GRAND PRAIRIE  CLOUDY    77  71  81 N3        29.95S
ADDISON        MOCLDY    77  72  83 NE5       29.94F
MESQUITE         N/A     74  72  92 CALM      29.94S
LANCASTER      CLOUDY    76  71  84 CALM      29.94S
$$

TXZ091>094-102>105-117-120-121-131>134-241200-
NORTH CENTRAL TEXAS

CITY           SKY/WX    TMP DP  RH WIND       PRES   REMARKS
SHRMAN/DENISON CLOUDY    74  72  95 E9        29.98R
GAINESVILLE    RAIN      71  70  96 E6        29.99S
BOWIE          CLOUDY    71  71  98 CALM      29.97S
BRIDGEPORT     LGT RAIN  73  73 100 CALM      29.97S
DECATUR        MOCLDY    72  70  93 E3          N/A
DENTON         LGT RAIN  73  72  96 NE6       29.94F
MCKINNEY       CLOUDY    75  75 100 NE5       29.95S
BONHAM         CLOUDY    72  72 100 NE7       29.96S
GREENVILLE     MOCLDY    77  75  94 E5        29.94F
ROCKWALL       CLOUDY    75  74  95 NE5       29.94S
TERRELL        CLOUDY    75  71  87 NE3       29.94S
WAXAHACHIE     CLOUDY    74  73  95 CALM      29.95S
CLEBURNE       CLOUDY    75  75 100 E5        29.96S
GRANBURY       MOCLDY    76  71  85 CALM      29.96S
$$

TXZ083>090-098>101-113>116-127>130-139>142-154-155-241200-
WESTERN NORTH TEXAS

CITY           SKY/WX    TMP DP  RH WIND       PRES   REMARKS
WICHITA FALLS  MOCLDY    71  69  93 N6        29.97S
WF-KICKAPOO    PTCLDY    72  71  96 N9        29.99S
VERNON         PTCLDY    69  66  89 NE3       30.01S
ABILENE        CLOUDY    70  69  97 CALM      29.99F
ABILENE-DYESS  PTCLDY    70  70 100 N5        29.98S
GRAHAM         PTCLDY    70  32  24 CALM      29.96S
BRECKENRIDGE   CLOUDY    72  71  98 CALM      29.97S
CISCO          MOCLDY    70  70 100 CALM      29.99F
EASTLAND       CLOUDY    69  68  98 CALM      29.97S
RANGER         CLOUDY    69  69  99 CALM      29.97S FOG
MINERAL WELLS  CLOUDY    74  71  91 N3        29.94S
STEPHENVILLE   PTCLDY    71  69  91 CALM      29.99S
COMANCHE       CLOUDY    70  70 100 CALM      29.97S
BROWNWOOD      CLOUDY    72  72 100 CALM      29.97S FOG
COLEMAN        PTCLDY    72  68  88 CALM      29.98F
$$

TXZ143>147-156>162-174-175-241200-
CENTRAL TEXAS

CITY           SKY/WX    TMP DP  RH WIND       PRES   REMARKS
WACO           CLOUDY    75  71  87 NE6       29.93S
WACO-MCGREGOR  CLOUDY    75  71  87 NE3       29.93S
HILLSBORO      CLOUDY    74  71  88 N5        29.94S
CORSICANA      CLOUDY    76  73  91 CALM      29.94S
MEXIA          CLOUDY    72  71  96 W7        29.93R
HEARNE         CLOUDY    74  74 100 N3        29.92S
CAMERON        CLOUDY    74  73  96 CALM      29.92R
TEMPLE         CLOUDY    74  73  97 N5        29.93S
KILLEEN        CLOUDY    72  71  97 CALM      29.93S
KILLEEN-SKYLRK CLOUDY    74  72  93 CALM      29.94S
FORT HOOD      CLOUDY   N/A N/A N/A N6        29.91S
GATESVILLE     CLOUDY    72  72 100 CALM      29.96S
HAMILTON       CLOUDY    71  71 100 NE3       29.98R
LAMPASAS       CLOUDY    73  72  97 N3        29.94R
$$

TXZ095>097-106>112-122>126-135>138-148>153-164>167-241200-
EAST TEXAS

CITY           SKY/WX    TMP DP  RH WIND       PRES   REMARKS
PARIS          MOCLDY    73  71  93 E8        29.98S
SULPHUR SPRNGS CLOUDY    75  74  98 E7        29.98R
MOUNT PLEASANT MOCLDY    74  73  95 E5        29.97R
GILMER         CLOUDY    73  72  98 CALM      29.95S
MINEOLA        CLOUDY    73  72  94 CALM      29.94S
TYLER          CLOUDY    74  74 100 NE5       29.93S
LONGVIEW       CLOUDY    75  74  96 NE3       29.93S
MARSHALL         N/A     73  70  91 CALM      29.96S
ATHENS         CLOUDY    72  72 100 CALM      29.93S
PALESTINE      CLOUDY    76  72  88 NE6       29.93F
JACKSONVILLE   CLOUDY    73  73 100 CALM      29.96R FOG
HENDERSON      CLOUDY    74  73  95 NE3       29.94S
CENTER         CLOUDY    77  75  95 CALM      29.94S FOG
NACOGDOCHES    CLEAR     74  73  97 E5        29.93R
LUFKIN         CLEAR     73  72  96 CALM      29.91S
$$

SUPPLEMENTAL OBSERVATIONS (NWS FORT WORTH AREA)

CITY           SKY/WX    TMP DP  RH WIND       PRES   REMARKS
CADDO GRASSLND   N/A     73  70  88 VRB3        N/A
PAT MAYSE LAKE   N/A     72  70  94 NE5         N/A
GREENVILLE       N/A     75  72  88 E7          N/A
CEDAR HILL       N/A     75  72  88 CALM        N/A
LBJ GRASSLAND    N/A     72  66  83 E3          N/A
POSSUM KINGDOM   N/A     73  70  88 E7          N/A
GRANBURY         N/A     73  68  83 W2          N/A
MCGREGOR         N/A     73  70  88 N3          N/A
TEMPLE           N/A     73  70  88 NE5         N/A
$$

SUPPLEMENTAL OBSERVATIONS (NWS NORMAN AREA)

CITY           SKY/WX    TMP DP  RH WIND       PRES   REMARKS
GOODLETT         N/A     68  65  91 NE3       30.02S
ODELL            N/A     68  67  96 E5        30.02S
CROWELL          N/A     70  69  98 N3        30.02S
KNOX CITY        N/A     71  67  88 N3        30.01S
SEYMOUR          N/A     71  68  90 N5        30.00R
MILLERS CREEK    N/A     70  68  94 N2          N/A
$$

SUPPLEMENTAL OBSERVATIONS (NWS SAN ANGELO AREA)

CITY           SKY/WX    TMP DP  RH WIND       PRES   REMARKS
WEINERT          N/A     68  66  94 N3        30.00F
HASKELL          N/A     69  67  95 N5        30.00S
THROCKMORTON     N/A     68  67  98 N2        29.99F
STAMFORD         N/A     70  69  97 N3        30.00S
CLYDE            N/A     70  68  96 NE5       30.01S
HAMBY            N/A     70  64  83 NE2         N/A
IVIE RESERVOIR   N/A     72  68  88 NE2         N/A
COLORADO BEND    N/A     70  66  88 N2          N/A
$$

SUPPLEMENTAL OBSERVATIONS (NWS SHREVEPORT AREA)

CITY           SKY/WX    TMP DP  RH WIND       PRES   REMARKS
CLARKSVILLE      N/A     72  66  83 NE3         N/A
TEXARKANA        N/A     72  68  88 NE1         N/A
LINDEN           N/A     73  68  83 NE1         N/A
GILMER           N/A     73  72  94 CALM        N/A
HENDERSON        N/A     73  72  94 NE3         N/A
N SABINE NF      N/A     73  72  94 MISG        N/A
S SABINE NF      N/A     73  70  88 CALM        N/A
$$

SUPPLEMENTAL OBSERVATIONS ARE A COLLECTION OF AUTOMATED INSTRUMENTS
THAT ARE MAINTAINED BY A VARIETY OF FEDERAL AND STATE AGENCIES.
CERTAIN ELEMENTS...SUCH AS HUMIDITY VALUES AND SUSTAINED WIND
SPEEDS...MAY BE APPROXIMATED.




USA.gov is the U.S. government's official web portal to all federal, state and local government web resources and services.